AirNav   Phillips 66 Aviation Fuel
 
 390 users online  

07Y Hill City-Quadna Mountain Airport
Hill City, Minnesota, USA

GOING TO HILL CITY?


FAA INFORMATION EFFECTIVE 11 OCTOBER 2018

Location

FAA Identifier: 07Y
Lat/Long: 46-57-21.2220N / 093-35-50.7940W
46-57.353700N / 093-35.846567W
46.9558950 / -93.5974428
(estimated)
Elevation: 1289 ft. / 393 m (estimated)
Variation: 03E (1985)
From city: 2 miles S of HILL CITY, MN
Time zone: UTC -5 (UTC -6 during Standard Time)
Zip code: 55748

Airport Operations

Airport use: Open to the public
Activation date: 03/1974
Control tower: no
ARTCC: MINNEAPOLIS CENTER
FSS: PRINCETON FLIGHT SERVICE STATION
NOTAMs facility: PNM (NOTAM-D service available)
Attendance: UNATNDD
Wind indicator: yes, WINDSOCK NOT LIT
Segmented circle: no

Airport Communications

CTAF: 122.9
WX AWOS-3PT at GPZ (16 nm N): 118.425 (218-326-8337)

Nearby radio navigation aids

VOR radial/distance  VOR name  Freq  Var
GPZr194/13.2GRAND RAPIDS VOR/DME111.4006E

 
NDB name  Hdg/Dist  Freq  Var  ID
GALEX202/11.527202EGP --. .--.
AITKIN007/24.739700EAIT .- .. -
LONGVILLE092/25.039203EXVG -..- ...- --.
PINE RIVER064/35.133003EPWC .--. .-- -.-.

Airport Services

Parking: tiedowns

Runway Information

Runway 16/34

Dimensions: 2902 x 150 ft. / 885 x 46 m
Surface: turf, in fair condition
Runway edge markings: 16/34 MKD WITH YELLOW CONES.
RUNWAY 16  RUNWAY 34
Latitude: 46-57.579355N46-57.128043N
Longitude: 093-35.960550W093-35.732597W
Elevation: 1279.1 ft.1281.4 ft.
Gradient: 0.2%0.2%
Traffic pattern: rightleft
Markings: , in fair condition, in fair condition
Runway end identifier lights: nono
Obstructions: 57 ft. trees, 1103 ft. from runway, 16 ft. right of centerline, 19:1 slope to clearnone

Airport Ownership and Management from official FAA records

Ownership: Publicly-owned
Owner: CITY OF HILL CITY
125 LAKE AVE, BOX 160
HILL CITY, MN 55748
Phone 218-697-2301
Manager: GEORGE CASPER
125 LAKE AVE, BOX 160
HILL CITY, MN 55748
Phone (218) 244-0440

Airport Operational Statistics

Aircraft based on the field: 3
Single engine airplanes: 3
    
Aircraft operations: avg 83/month *
50% transient general aviation
50% local general aviation
* for 12-month period ending 31 August 2016

Additional Remarks

ARPT CLSD SS-SR.

Instrument Procedures

There are no published instrument procedures at 07Y.

Some nearby airports with instrument procedures:

KGPZ - Grand Rapids/Itasca County Airport-Gordon Newstrom Field (16 nm N)
KHZX - Isedor Iverson Airport (23 nm SE)
KAIT - Aitkin Municipal Airport-Steve Kurtz Field (25 nm S)
KXVG - Longville Municipal Airport (25 nm W)
KPWC - Pine River Regional Airport (35 nm SW)
 
Loc | Ops | Rwys | IFR | FBO | Links
Com | Nav | Svcs | Stats | Notes


 
Area around 07Y (Hill City-Quadna Mountain Airport)
 
Road maps at: MapQuest Bing Google
 
Aerial photo
WARNING: Photo may not be current or correct
Aerial photo of 07Y (Hill City-Quadna Mountain Airport)
Photo by Ed Wells
Photo taken 10-Oct-2010
looking north.

Do you have a better or more recent aerial photo of Hill City-Quadna Mountain Airport that you would like to share? If so, please send us your photo.

 
Sectional chart

 
Airport distance calculator
Flying to Hill City-Quadna Mountain Airport? Find the distance to fly.

From to 07Y

Sunrise and sunset
Times for 16-Oct-2018
 Local
(UTC-5)
 Zulu
(UTC)
Morning civil twilight07:0412:04
Sunrise07:3512:35
Sunset18:2523:25
Evening civil twilight18:5623:56

Current date and time
Zulu (UTC)  16-Oct-2018 08:55:51
Local (UTC-5)  16-Oct-2018 03:55:51
 
METAR
KGPZ 
16nm N 
160756Z AUTO 21006KT 10SM CLR 04/M03 A2981 RMK AO2 SLP109 T00441028 PNO $
KHZX 
23nm SE 
160835Z AUTO 21004KT 10SM CLR 02/M02 A2983 RMK AO2
KXVG 
25nm W 
160833Z AUTO 22004KT 10SM CLR 03/M02 A2981 RMK AO2
KAIT 
26nm S 
160835Z AUTO 23006KT 10SM CLR 02/M03 A2982 RMK AO2
TAF
KBRD 
40nm SW 
160531Z 1606/1706 24012G16KT P6SM FEW090 WS015/27028KT FM161000 27009KT P6SM FEW150 FM161500 31013G24KT P6SM BKN060
KHIB 
40nm NE 
160531Z 1606/1706 24008G14KT P6SM -SHSN BKN050 FM160800 25008KT P6SM SCT035 FM161300 30011G21KT P6SM BKN025 FM162300 31012KT P6SM BKN035
NOTAMs
Click for the latest NOTAMs
NOTAMs are issued by the DoD/FAA and will open in a separate window not controlled by AirNav.

 

 
 

Would you like to see your business listed on this page?

 If your business provides an interesting product or service to pilots, flight crews, aircraft, or users of the Hill City-Quadna Mountain Airport, you should consider listing it here.  To start the listing process, click on the button below
 
Add a business
 

Other Pages about Hill City-Quadna Mountain Airport

Update a link
 
Copyright © AirNav, LLC. All rights reserved. Privacy Policy  Contact